| time (UTC) | temp F | wind direction | speed MPH | gust MPH | rain 1hr in | rain 24hr in | rain mn in | humidity % | barometer mb |
| 20260505124535 | 38 | 360 | 0.0 | 1.0 | 0.00 | 0.00 | 0.00 | 59 | 999.4 |
| 20260505123029 | 38 | 360 | 0.0 | 0.0 | 0.00 | 0.00 | 0.00 | 57 | 999.1 |
| 20260505121526 | 39 | 360 | 0.0 | 0.0 | 0.00 | 0.00 | 0.00 | 57 | 999.0 |
| 20260505120024 | 40 | 360 | 0.0 | 0.0 | 0.00 | 0.00 | 0.00 | 56 | 999.2 |
| 20260505114522 | 40 | 360 | 0.0 | 0.0 | 0.00 | 0.00 | 0.00 | 55 | 999.4 |
| 20260505113021 | 41 | 360 | 0.0 | 0.0 | 0.00 | 0.00 | 0.00 | 55 | 999.1 |
| 20260505111517 | 41 | 360 | 0.0 | 0.0 | 0.00 | 0.00 | 0.00 | 53 | 998.8 |
| 20260505101506 | 43 | 360 | 0.0 | 1.0 | 0.00 | 0.00 | 0.00 | 48 | 998.4 |
| 20260505100002 | 44 | 360 | 0.0 | 0.0 | 0.00 | 0.00 | 0.00 | 47 | 998.7 |
| 20260505094600 | 44 | 360 | 0.0 | 0.0 | 0.00 | 0.00 | 0.00 | 46 | 998.7 |
| 20260505093031 | 45 | 360 | 0.0 | 0.0 | 0.00 | 0.00 | 0.00 | 44 | 998.8 |
| 20260505091528 | 46 | 360 | 0.0 | 0.0 | 0.00 | 0.00 | 0.00 | 42 | 999.2 |
| 20260505090105 | 47 | 360 | 0.0 | 0.0 | 0.00 | 0.00 | 0.00 | 42 | 999.4 |
| 20260505084555 | 47 | 360 | 0.0 | 0.0 | 0.00 | 0.00 | 0.00 | 41 | 999.7 |
| 20260505083056 | 47 | 360 | 0.0 | 3.0 | 0.00 | 0.00 | 0.00 | 40 | 1000.0 |
| 20260505081548 | 46 | 360 | 0.0 | 1.0 | 0.00 | 0.00 | 0.00 | 41 | 1000.1 |
| 20260505080046 | 46 | 360 | 0.0 | 1.0 | 0.00 | 0.00 | 0.00 | 44 | 1000.0 |
| 20260505074545 | 46 | 360 | 0.0 | 1.0 | 0.00 | 0.00 | 0.00 | 45 | 1000.0 |
| 20260505073041 | 46 | 360 | 0.0 | 0.0 | 0.00 | 0.00 | 0.00 | 46 | 999.8 |
| 20260505071538 | 46 | 360 | 0.0 | 0.0 | 0.00 | 0.00 | 0.00 | 46 | 999.6 |
| 20260505070135 | 46 | 360 | 0.0 | 0.0 | 0.00 | 0.00 | 0.00 | 45 | 999.4 |
| 20260505064533 | 45 | 360 | 0.0 | 0.0 | 0.00 | 0.00 | 0.00 | 46 | 999.4 |
| 20260505063036 | 45 | 360 | 0.0 | 0.0 | 0.00 | 0.00 | 0.00 | 45 | 999.3 |
| 20260505061530 | 45 | 360 | 0.0 | 1.0 | 0.00 | 0.00 | 0.00 | 44 | 999.2 |
| 20260505060033 | 45 | 360 | 0.0 | 1.0 | 0.00 | 0.00 | 0.00 | 43 | 999.3 |
| 20260505054536 | 46 | 360 | 0.0 | 1.0 | 0.00 | 0.00 | 0.00 | 43 | 999.4 |
| 20260505053033 | 46 | 360 | 0.0 | 0.0 | 0.00 | 0.00 | 0.00 | 41 | 999.5 |
| 20260505051556 | 47 | 360 | 0.0 | 1.0 | 0.00 | 0.00 | 0.00 | 38 | 999.6 |
| 20260505041552 | 49 | 360 | 0.0 | 1.0 | 0.00 | 0.00 | 0.00 | 36 | 999.9 |
| 20260505040052 | 49 | 360 | 0.0 | 0.0 | 0.00 | 0.00 | 0.00 | 36 | 999.8 |
| 20260505034548 | 49 | 360 | 0.0 | 1.0 | 0.00 | 0.00 | 0.00 | 35 | 999.7 |
| 20260505033109 | 49 | 360 | 0.0 | 1.0 | 0.00 | 0.00 | 0.00 | 33 | 999.7 |
| 20260505031549 | 49 | 360 | 0.0 | 1.0 | 0.00 | 0.00 | 0.00 | 34 | 999.2 |
| 20260505030047 | 50 | 360 | 0.0 | 2.0 | 0.00 | 0.00 | 0.00 | 32 | 999.0 |
| 20260505024544 | 51 | 360 | 0.0 | 2.0 | 0.00 | 0.00 | 0.00 | 31 | 998.9 |
| 20260505023057 | 53 | 360 | 0.0 | 0.0 | 0.00 | 0.00 | 0.00 | 29 | 998.9 |
| 20260505021544 | 55 | 360 | 0.0 | 3.0 | 0.00 | 0.00 | 0.00 | 26 | 998.7 |
| 20260505020048 | 55 | 360 | 0.0 | 1.0 | 0.00 | 0.00 | 0.00 | 25 | 998.7 |
| 20260505014542 | 56 | 360 | 2.0 | 9.0 | 0.00 | 0.00 | 0.00 | 24 | 998.6 |
| 20260505013041 | 57 | 360 | 0.0 | 3.0 | 0.00 | 0.00 | 0.00 | 23 | 998.3 |
| 20260505011540 | 57 | 360 | 1.0 | 9.0 | 0.00 | 0.00 | 0.00 | 22 | 998.2 |
| 20260505010042 | 58 | 360 | 2.0 | 8.0 | 0.00 | 0.00 | 0.00 | 21 | 998.3 |
| 20260505004546 | 58 | 360 | 3.0 | 9.0 | 0.00 | 0.00 | 0.00 | 20 | 998.2 |
| 20260505003038 | 59 | 360 | 5.0 | 11.0 | 0.00 | 0.00 | 0.00 | 20 | 998.5 |
| 20260505001536 | 59 | 360 | 5.0 | 13.0 | 0.00 | 0.00 | 0.00 | 19 | 998.5 |
| 20260505000037 | 60 | 360 | 3.0 | 11.0 | 0.00 | 0.00 | 0.00 | 18 | 998.5 |
| 20260504234546 | 61 | 360 | 3.0 | 9.0 | 0.00 | 0.00 | 0.00 | 19 | 998.4 |
| 20260504233034 | 61 | 360 | 2.0 | 10.0 | 0.00 | 0.00 | 0.00 | 19 | 998.2 |
| 20260504231542 | 63 | 360 | 6.0 | 15.0 | 0.00 | 0.00 | 0.00 | 18 | 998.2 |
| 20260504230031 | 64 | 360 | 3.0 | 11.0 | 0.00 | 0.00 | 0.00 | 19 | 998.0 |
| 20260504224608 | 64 | 360 | 5.0 | 14.0 | 0.00 | 0.00 | 0.00 | 20 | 997.7 |
| 20260504223059 | 65 | 360 | 4.0 | 12.0 | 0.00 | 0.00 | 0.00 | 19 | 998.0 |
| 20260504221604 | 65 | 360 | 2.0 | 12.0 | 0.00 | 0.00 | 0.00 | 19 | 997.8 |
| 20260504220055 | 65 | 360 | 1.0 | 11.0 | 0.00 | 0.00 | 0.00 | 19 | 998.0 |
| 20260504214553 | 65 | 360 | 4.0 | 11.0 | 0.00 | 0.00 | 0.00 | 21 | 998.4 |
| 20260504213053 | 64 | 360 | 4.0 | 12.0 | 0.00 | 0.00 | 0.00 | 21 | 998.5 |
| 20260504211542 | 63 | 360 | 3.0 | 11.0 | 0.00 | 0.00 | 0.00 | 23 | 998.7 |
| 20260504210042 | 63 | 360 | 3.0 | 10.0 | 0.00 | 0.00 | 0.00 | 24 | 998.8 |
| 20260504204617 | 62 | 360 | 5.0 | 15.0 | 0.00 | 0.00 | 0.00 | 24 | 999.1 |
| 20260504203035 | 63 | 360 | 4.0 | 15.0 | 0.00 | 0.00 | 0.00 | 25 | 999.3 |
| 20260504201531 | 63 | 360 | 2.0 | 9.0 | 0.00 | 0.00 | 0.00 | 27 | 999.2 |
| 20260504200034 | 62 | 360 | 4.0 | 13.0 | 0.00 | 0.00 | 0.00 | 28 | 999.4 |
| 20260504194528 | 63 | 360 | 1.0 | 11.0 | 0.00 | 0.00 | 0.00 | 27 | 999.7 |
| 20260504193026 | 62 | 360 | 3.0 | 11.0 | 0.00 | 0.00 | 0.00 | 29 | 999.6 |
| 20260504191521 | 62 | 360 | 0.0 | 8.0 | 0.00 | 0.00 | 0.00 | 31 | 999.7 |
| 20260504190020 | 62 | 360 | 4.0 | 10.0 | 0.00 | 0.00 | 0.00 | 30 | 1000.0 |
| 20260504184519 | 62 | 360 | 5.0 | 10.0 | 0.00 | 0.00 | 0.00 | 31 | 1000.0 |
| 20260504183016 | 62 | 360 | 4.0 | 10.0 | 0.00 | 0.00 | 0.00 | 32 | 1000.2 |
| 20260504181511 | 61 | 360 | 3.0 | 9.0 | 0.00 | 0.00 | 0.00 | 33 | 1000.4 |
| 20260504180005 | 60 | 360 | 3.0 | 9.0 | 0.00 | 0.00 | 0.00 | 36 | 1000.5 |
| 20260504174501 | 59 | 360 | 1.0 | 6.0 | 0.00 | 0.00 | 0.00 | 40 | 1000.9 |
| 20260504173058 | 58 | 360 | 0.0 | 10.0 | 0.00 | 0.00 | 0.00 | 40 | 1001.2 |
| 20260504171554 | 57 | 360 | 0.0 | 3.0 | 0.00 | 0.00 | 0.00 | 43 | 1001.2 |